STARLINK-36327

Last updated on Sat Mar 14 2026 00:02:07 GMT+0000 (Coordinated Universal Time)

1 67738U 26026T 26072.58334491 .00104447 00000+0 32043-2 0 9994 2 67738 97.2844 127.1847 0001085 67.1461 16.9259 15.33333508 5940
UTC large
Height (km)
Speed (km/s)
/
Latitude / Longitude
Inclination (degrees)
Orbital Period (minutes)
Azimuth
Elevation
Range (km)
Doppler Factor

Next 0 passes for location: London (51.5072 / 0.1276)

Sorry there are no passes over London.